Wind_Speed
32 32 32 32 32 32 29 26 25 25 25 24 23 22 21 20 20 19 17 15 15 14 14 13 13 13 12 11 10 10 9 9 8 7 7 6 6 6 5 5 5 5 5 5 5 5 6 6 6
34 34 35 34 34 33 29 27 27 27 26 25 25 24 23 23 22 20 18 17 17 16 16 15 15 14 14 13 12 11 11 10 10 9 8 8 7 7 7 7 7 7 7 6 7 7 7 7 8
35 36 36 37 36 34 30 29 30 29 27 27 27 27 26 26 23 22 20 19 19 18 18 17 17 16 16 15 14 13 13 12 11 10 10 10 9 9 9 9 9 8 8 8 8 8 9 9 9
37 38 38 38 37 34 32 32 32 31 30 29 29 29 28 27 25 24 23 21 21 20 20 19 19 18 18 17 16 15 15 14 13 12 12 11 11 11 11 11 11 10 10 10 10 10 11 11 11
39 39 40 39 37 35 35 36 34 33 31 31 31 30 30 29 27 27 25 24 23 21 21 21 21 20 19 19 18 18 17 16 15 15 14 13 13 13 13 12 12 12 12 12 12 12 12 12 13
41 41 41 39 37 36 36 37 37 35 33 33 32 32 31 30 29 29 28 26 25 24 23 23 22 22 21 21 20 20 19 18 17 17 16 15 14 14 13 13 13 13 13 14 14 14 14 14 15
43 42 42 40 39 38 38 38 37 36 36 34 34 34 32 31 31 30 29 28 27 25 24 24 23 23 22 22 22 22 21 20 19 18 18 17 16 15 15 15 15 15 15 15 15 16 16 16 16
44 44 43 41 40 39 39 39 38 37 37 37 36 36 34 32 32 32 31 30 28 27 26 25 25 24 24 23 23 23 22 22 21 20 19 19 18 18 17 17 17 17 17 17 17 17 17 17 17
45 45 44 42 41 41 41 41 40 39 39 38 37 37 35 34 33 33 33 32 30 29 28 27 26 26 25 25 25 24 24 23 22 22 21 21 20 19 19 19 19 18 18 18 18 18 18 18 18
47 46 43 42 42 42 42 42 41 40 40 39 38 38 36 35 35 34 34 33 31 30 30 29 28 27 27 26 26 26 25 24 23 23 22 22 21 21 20 20 20 20 19 19 19 19 19 19 19
47 46 44 44 44 44 44 43 43 42 41 40 39 38 37 36 36 36 35 34 33 32 31 30 29 29 28 28 27 27 26 25 25 24 23 23 22 22 21 21 21 21 21 21 20 21 21 21 21
47 46 45 46 45 45 44 44 44 43 42 41 40 39 38 38 37 37 36 36 34 33 32 32 31 30 30 29 29 28 27 27 26 26 25 24 24 24 23 23 23 23 23 22 22 23 23 23 23
48 47 47 47 47 46 45 45 44 43 43 43 41 40 38 38 38 38 37 37 36 35 34 33 33 32 31 30 30 29 29 28 28 27 27 26 26 25 25 24 24 24 24 24 24 24 24 24 24
48 48 48 48 47 47 46 45 45 43 44 44 43 41 40 39 38 38 38 38 37 36 35 35 34 33 33 32 32 31 30 30 29 29 29 28 28 27 27 26 26 25 25 25 25 26 26 26 26
47 49 49 48 48 48 48 47 45 44 44 44 44 43 42 41 40 39 39 38 38 37 37 36 35 35 34 34 33 33 32 31 31 31 30 29 29 28 28 28 27 27 27 27 27 27 27 27 27
47 49 49 49 48 48 48 47 46 45 45 45 45 44 43 42 41 41 40 40 39 38 38 37 37 36 35 35 34 34 34 33 32 32 32 30 30 29 29 29 28 28 28 28 28 28 28 28 28
47 48 48 49 49 49 49 48 47 47 46 46 45 45 44 43 43 42 42 41 40 39 38 39 38 37 36 36 35 35 35 34 33 33 33 32 31 31 30 30 30 30 30 29 29 29 29 30 30
46 47 47 48 48 49 49 48 48 48 47 46 45 45 45 45 44 44 43 42 42 40 39 39 39 38 37 37 37 36 36 35 35 34 34 33 33 32 32 31 31 31 31 31 31 31 32 32 32
44 46 46 46 47 48 49 48 48 49 48 47 46 46 46 45 45 44 44 43 43 42 41 40 40 39 38 38 38 37 37 36 36 35 35 35 34 34 33 34 33 33 33 33 33 33 33 34 34
42 44 46 46 47 48 49 48 48 49 48 48 47 47 46 46 45 45 45 44 44 43 42 41 41 41 40 39 39 39 38 37 37 36 36 36 35 35 35 35 35 35 35 34 34 34 35 35 35
40 42 44 45 45 46 47 48 48 48 47 47 47 47 47 46 46 46 46 45 45 44 43 42 42 43 42 41 40 40 40 39 38 37 37 37 37 37 36 36 36 36 35 35 35 35 36 36 36
39 40 43 44 44 45 47 48 48 47 47 46 45 46 46 46 46 46 46 45 45 45 45 44 44 44 43 42 42 41 41 40 39 39 38 38 38 38 38 37 37 36 36 36 36 36 36 37 38
39 39 40 42 44 46 47 49 48 48 48 46 45 45 46 46 46 46 46 45 46 46 46 45 44 44 44 44 44 43 42 42 41 40 39 39 38 38 38 38 38 37 38 37 37 37 38 38 39
38 38 38 40 42 45 45 47 48 47 47 46 46 46 46 47 47 46 46 46 46 46 46 46 45 45 45 45 45 44 43 43 43 42 41 40 40 39 39 39 38 38 39 39 39 39 39 40 40
36 36 36 36 39 42 42 44 47 46 46 46 46 46 47 47 47 47 46 46 46 46 46 47 47 46 46 46 45 45 44 44 43 43 42 41 41 41 40 40 39 39 40 40 40 40 41 41 41
35 35 35 36 38 39 40 42 44 45 45 45 46 46 47 47 48 47 46 46 47 47 47 47 47 47 47 47 46 45 45 44 43 43 42 42 41 41 41 41 40 41 41 42 42 42 42 42 42
33 34 33 34 36 38 40 41 43 42 42 43 45 45 45 47 47 47 47 47 47 48 48 47 47 47 47 48 48 47 46 45 44 44 43 42 42 42 42 42 42 42 43 43 43 43 43 44 44
33 33 33 32 32 34 37 39 42 42 42 42 44 45 45 46 47 47 48 48 48 48 48 48 48 48 48 48 48 48 47 46 45 45 45 44 44 44 44 43 44 44 45 45 45 45 45 45 45
32 33 34 33 33 33 34 36 38 39 40 41 42 43 45 46 46 47 47 47 47 48 48 48 48 48 48 48 48 48 47 47 47 46 46 46 45 45 46 46 45 45 45 45 46 46 46 47 47
32 32 33 33 34 34 35 35 35 36 37 38 40 41 42 45 46 47 47 47 47 47 48 49 49 49 49 48 48 48 48 47 47 47 47 47 47 47 47 47 47 47 46 46 46 47 47 47 47
Wind_Direction
232 232 232 231 232 233 232 232 232 230 230 229 231 232 234 236 237 238 236 237 237 237 237 236 234 233 234 234 233 232 231 232 236 239 240 243 243 243 247 252 258 266 277 284 290 294 297 301 305
233 233 233 233 233 234 233 234 233 232 232 231 232 232 233 236 238 240 240 239 239 239 239 238 237 236 236 237 236 235 235 236 239 241 244 246 248 249 253 257 262 268 275 280 285 290 293 295 298
233 233 233 234 234 234 234 235 235 234 233 233 234 233 233 236 238 240 241 241 241 240 241 240 239 239 239 240 240 239 238 239 241 244 247 249 252 254 256 260 263 266 272 278 282 286 290 292 294
234 233 234 234 234 234 234 235 235 235 234 234 235 235 235 236 237 240 241 241 241 242 241 242 241 241 241 241 242 242 242 242 243 246 249 252 254 256 258 261 263 265 271 275 280 283 287 290 292
234 234 234 234 235 234 234 235 235 236 235 235 236 236 235 236 237 239 240 241 241 241 242 243 243 243 243 242 242 243 243 244 246 248 250 253 255 257 259 263 264 267 270 274 278 282 285 288 290
235 235 235 235 235 234 235 236 236 237 236 236 237 237 236 236 237 239 240 241 241 241 242 243 244 244 244 244 243 244 244 245 246 248 250 252 254 257 260 262 265 268 271 275 279 282 285 287 288
235 235 236 235 234 234 234 236 237 237 237 237 237 238 236 236 237 239 240 241 241 241 242 243 245 245 245 244 244 244 244 245 246 247 250 251 253 256 259 262 266 269 273 276 280 282 283 285 286
235 236 235 234 234 234 234 235 236 237 237 237 236 238 237 237 237 239 240 241 242 242 243 243 244 246 246 245 245 244 244 246 247 248 250 252 254 257 260 263 266 269 273 276 279 280 282 284 286
234 235 235 234 235 235 235 234 235 236 238 238 237 239 238 237 238 239 239 241 242 242 243 243 244 246 246 246 245 245 245 247 247 248 250 253 256 258 261 263 266 269 271 274 277 279 282 284 287
234 235 234 234 235 236 236 235 235 236 237 238 237 238 238 238 238 239 240 240 241 242 243 244 244 245 246 246 245 246 246 247 248 249 251 254 256 258 260 263 265 268 271 273 275 278 281 283 285
235 235 235 235 235 236 236 235 235 235 236 237 237 238 238 238 239 239 239 240 241 241 242 243 244 245 245 245 245 245 245 246 248 250 252 255 257 259 261 263 265 268 270 273 275 277 280 282 284
235 234 234 235 235 235 236 235 235 235 236 237 237 237 237 238 239 239 239 240 240 241 241 242 243 244 245 245 245 244 245 247 249 251 253 255 257 260 262 264 266 268 271 273 275 278 280 282 283
234 234 234 235 235 235 235 235 235 235 236 237 237 238 238 237 238 239 239 240 240 241 241 242 243 244 245 245 245 245 245 247 249 252 254 256 257 260 263 265 266 269 270 272 275 277 279 281 283
233 234 234 233 233 234 234 235 235 235 236 237 237 237 237 238 238 239 240 240 240 240 241 242 242 243 244 245 245 245 246 248 250 252 254 256 258 259 262 265 267 269 271 273 274 277 278 280 282
233 234 233 232 232 232 234 234 234 234 235 236 237 237 238 238 238 239 240 241 241 241 241 242 242 243 243 245 245 246 247 248 250 252 254 256 258 260 262 264 267 269 271 273 274 276 278 281 282
233 234 234 232 232 232 233 233 233 234 235 236 236 237 237 238 239 240 240 241 242 242 241 242 242 243 244 245 246 247 248 249 250 252 254 255 257 260 262 264 266 268 270 272 274 276 278 280 281
233 234 234 233 233 234 234 234 234 235 235 236 237 237 237 238 239 240 241 241 242 242 242 242 242 243 244 245 246 247 249 250 251 253 254 256 257 260 262 264 266 268 270 272 273 275 278 280 282
235 234 234 234 235 235 236 235 235 235 236 236 237 237 238 238 239 241 242 242 242 242 243 243 242 243 244 245 246 247 249 250 252 253 255 257 258 260 262 264 265 267 269 271 273 275 278 280 282
236 236 235 235 236 236 236 236 235 234 235 236 237 237 238 238 239 240 241 241 241 242 243 242 242 243 244 245 246 247 248 250 252 253 255 256 258 260 262 264 265 267 268 271 273 275 277 279 282
233 235 235 236 237 237 237 236 235 235 235 236 237 238 238 238 239 240 241 241 241 242 243 243 242 242 243 244 245 247 248 250 252 253 254 256 257 259 261 263 265 267 269 271 273 275 277 280 282
232 234 234 236 237 238 238 237 235 235 235 235 236 237 238 238 239 240 241 241 241 241 241 242 243 243 243 244 245 247 248 250 252 253 255 256 257 258 260 262 264 266 268 271 273 275 278 280 282
231 233 235 235 236 238 238 239 236 235 236 236 236 237 238 238 239 240 241 241 241 241 241 242 243 243 243 244 245 247 248 250 251 253 254 257 258 259 261 262 263 265 268 271 273 275 278 280 282
231 232 235 237 237 239 239 240 238 237 237 237 238 238 238 238 239 240 241 241 241 241 241 242 243 244 244 245 246 247 248 249 251 252 254 256 258 259 261 262 263 265 268 271 272 275 278 281 283
231 232 234 236 238 240 239 241 240 239 239 238 239 239 239 239 239 240 241 242 242 241 242 243 244 245 245 245 246 247 247 249 251 252 254 256 258 260 261 261 263 266 268 271 273 276 279 281 283
228 229 231 233 236 239 239 241 241 240 239 239 240 240 240 240 240 241 241 242 242 242 242 243 243 244 244 245 246 247 247 249 251 252 254 256 258 259 261 262 264 267 269 271 273 276 279 281 283
228 228 231 234 236 238 239 240 241 241 240 240 241 241 242 241 241 241 241 242 243 242 243 243 244 244 244 245 246 247 249 250 251 253 255 257 258 260 261 263 265 267 269 271 273 276 279 281 283
228 229 231 237 241 242 243 243 241 241 242 241 241 242 242 242 241 241 241 242 243 242 242 243 244 245 245 246 246 247 248 250 251 253 255 257 258 260 262 264 265 267 269 271 274 276 279 281 283
229 229 232 236 239 242 245 245 243 243 243 243 243 243 243 242 242 242 243 243 243 243 243 243 244 245 246 246 247 247 248 250 251 253 255 257 259 260 262 266 268 269 270 272 275 277 279 281 282
227 229 232 237 239 242 245 245 245 246 245 245 245 244 243 242 243 243 243 243 244 244 244 244 245 246 246 246 246 247 248 249 251 253 255 257 259 261 263 265 267 270 271 273 275 276 278 280 282
232 230 232 235 239 242 246 249 249 249 247 246 245 244 245 244 243 243 243 244 244 244 244 245 245 246 246 246 246 247 248 250 251 253 255 257 259 261 263 266 268 271 272 273 275 277 278 280 281
Height
5814 5816 5819 5823 5826 5828 5832 5837 5839 5842 5844 5847 5849 5851 5854 5856 5858 5861 5862 5863 5865 5866 5867 5869 5870 5872 5873 5874 5875 5876 5877 5878 5879 5879 5880 5881 5881 5882 5882 5883 5883 5884 5884 5884 5884 5884 5884 5884 5884
5808 5811 5814 5817 5820 5823 5829 5833 5835 5837 5840 5844 5846 5848 5850 5852 5854 5856 5859 5861 5862 5864 5865 5867 5868 5870 5871 5872 5873 5875 5876 5877 5878 5878 5879 5880 5880 5881 5882 5882 5882 5883 5883 5883 5884 5884 5884 5883 5883
5802 5804 5808 5811 5814 5819 5825 5828 5830 5833 5836 5839 5842 5844 5847 5848 5851 5853 5856 5858 5860 5861 5863 5864 5866 5867 5869 5870 5872 5873 5874 5875 5876 5877 5878 5878 5879 5880 5880 5881 5881 5882 5882 5882 5882 5882 5882 5882 5882
5795 5798 5801 5805 5810 5815 5819 5822 5824 5828 5831 5834 5837 5840 5842 5845 5848 5850 5852 5854 5856 5859 5860 5862 5863 5865 5866 5868 5869 5870 5872 5873 5874 5875 5876 5877 5877 5878 5879 5879 5880 5880 5881 5881 5881 5881 5881 5881 5880
5788 5792 5795 5799 5805 5810 5813 5815 5819 5822 5826 5829 5832 5835 5838 5841 5844 5845 5848 5851 5853 5855 5857 5859 5860 5862 5864 5865 5867 5868 5869 5871 5872 5873 5874 5875 5875 5876 5877 5877 5878 5878 5879 5879 5879 5879 5879 5879 5878
5782 5785 5789 5793 5799 5803 5806 5809 5813 5817 5820 5824 5827 5829 5833 5836 5839 5841 5844 5846 5849 5852 5854 5855 5857 5859 5860 5862 5864 5865 5866 5868 5869 5870 5871 5872 5873 5874 5875 5875 5876 5876 5876 5877 5877 5877 5877 5876 5876
5775 5778 5782 5788 5792 5796 5800 5803 5807 5811 5814 5818 5821 5823 5828 5831 5834 5836 5839 5842 5845 5848 5850 5851 5853 5855 5857 5859 5860 5862 5863 5865 5866 5867 5869 5870 5870 5871 5872 5873 5873 5874 5874 5874 5874 5874 5874 5874 5873
5766 5771 5775 5780 5785 5789 5793 5796 5800 5804 5807 5811 5814 5817 5822 5826 5828 5831 5834 5837 5840 5843 5845 5847 5849 5851 5853 5855 5856 5858 5860 5861 5863 5864 5865 5867 5867 5868 5869 5870 5870 5871 5871 5871 5871 5871 5871 5871 5871
5756 5763 5768 5774 5778 5782 5785 5789 5793 5797 5800 5803 5807 5811 5816 5820 5823 5826 5829 5832 5835 5838 5841 5843 5845 5847 5849 5851 5852 5854 5856 5858 5859 5861 5862 5863 5864 5865 5866 5867 5867 5868 5868 5868 5868 5868 5868 5868 5867
5748 5754 5762 5767 5770 5773 5776 5781 5786 5790 5793 5797 5801 5804 5809 5813 5816 5820 5823 5827 5830 5833 5836 5838 5840 5843 5844 5846 5848 5850 5852 5854 5855 5857 5858 5859 5860 5861 5862 5863 5864 5864 5864 5865 5865 5865 5865 5864 5864
5739 5747 5754 5757 5760 5764 5768 5773 5777 5782 5786 5790 5794 5798 5802 5806 5810 5813 5817 5821 5824 5827 5830 5833 5835 5837 5839 5842 5844 5846 5848 5849 5851 5853 5854 5855 5856 5858 5858 5859 5860 5860 5861 5861 5861 5861 5861 5861 5860
5731 5738 5742 5747 5751 5755 5760 5765 5769 5774 5779 5783 5787 5791 5795 5800 5803 5807 5810 5814 5818 5821 5824 5827 5830 5832 5834 5837 5839 5841 5843 5845 5847 5848 5850 5851 5852 5853 5854 5855 5855 5856 5856 5857 5857 5857 5857 5856 5856
5721 5728 5732 5737 5742 5747 5752 5756 5761 5767 5771 5775 5780 5784 5789 5793 5796 5800 5804 5807 5811 5815 5818 5821 5824 5826 5829 5831 5833 5836 5838 5840 5842 5843 5845 5846 5847 5849 5849 5850 5851 5851 5852 5852 5852 5852 5852 5852 5851
5712 5718 5722 5727 5733 5738 5743 5748 5754 5760 5763 5767 5772 5777 5781 5786 5790 5794 5797 5801 5805 5808 5812 5815 5818 5821 5823 5825 5828 5830 5833 5834 5836 5838 5839 5841 5842 5843 5844 5845 5846 5846 5847 5847 5847 5847 5847 5847 5846
5702 5707 5712 5718 5724 5730 5735 5740 5746 5752 5755 5759 5764 5769 5774 5778 5782 5787 5790 5794 5798 5801 5805 5808 5811 5814 5817 5819 5822 5824 5827 5829 5831 5832 5834 5835 5836 5838 5839 5840 5841 5841 5841 5842 5842 5842 5841 5841 5840
5691 5696 5703 5709 5715 5721 5727 5733 5739 5742 5747 5752 5756 5761 5766 5771 5775 5779 5783 5787 5790 5794 5798 5801 5804 5807 5810 5813 5816 5818 5820 5823 5825 5826 5828 5829 5831 5832 5833 5834 5835 5835 5836 5836 5836 5836 5836 5836 5835
5681 5687 5694 5701 5706 5711 5717 5723 5729 5733 5738 5743 5748 5753 5758 5763 5767 5771 5775 5779 5783 5787 5791 5794 5797 5800 5803 5806 5809 5812 5814 5816 5818 5820 5822 5823 5825 5826 5827 5828 5829 5829 5830 5830 5830 5830 5830 5830 5829
5675 5680 5686 5692 5697 5702 5708 5714 5720 5724 5730 5735 5740 5745 5750 5754 5759 5763 5767 5771 5776 5779 5783 5786 5790 5793 5796 5799 5802 5805 5807 5810 5812 5814 5815 5817 5818 5819 5821 5821 5822 5823 5823 5824 5824 5824 5823 5823 5822
5666 5672 5677 5683 5688 5693 5699 5705 5710 5715 5720 5726 5731 5736 5741 5746 5751 5755 5759 5763 5767 5771 5775 5779 5782 5785 5789 5792 5795 5798 5800 5803 5805 5807 5808 5810 5811 5813 5814 5815 5815 5816 5816 5817 5817 5817 5816 5816 5815
5657 5662 5668 5673 5678 5684 5689 5695 5701 5705 5711 5716 5721 5727 5732 5737 5742 5746 5750 5754 5759 5763 5767 5771 5774 5777 5781 5784 5787 5790 5792 5795 5797 5799 5801 5803 5804 5805 5806 5807 5808 5809 5809 5810 5810 5809 5809 5808 5808
5649 5654 5660 5665 5670 5674 5680 5685 5691 5696 5701 5707 5712 5717 5722 5728 5733 5737 5741 5746 5750 5754 5758 5762 5765 5769 5772 5776 5778 5781 5784 5787 5790 5792 5794 5795 5797 5798 5799 5800 5801 5801 5802 5802 5802 5802 5801 5801 5800
5642 5647 5651 5656 5661 5665 5671 5674 5682 5688 5693 5698 5704 5709 5713 5719 5724 5728 5733 5737 5741 5745 5749 5753 5757 5760 5764 5767 5770 5773 5776 5779 5782 5784 5785 5787 5788 5790 5791 5792 5793 5794 5794 5794 5794 5794 5793 5793 5792
5634 5639 5644 5648 5653 5657 5662 5665 5673 5678 5683 5690 5695 5700 5704 5709 5714 5719 5724 5728 5732 5736 5740 5744 5748 5751 5755 5758 5761 5764 5767 5770 5773 5775 5777 5779 5780 5781 5783 5784 5785 5786 5786 5786 5786 5786 5785 5784 5783
5627 5632 5636 5640 5643 5648 5654 5657 5663 5669 5676 5681 5686 5691 5695 5700 5705 5710 5714 5718 5723 5727 5731 5735 5739 5742 5746 5749 5752 5755 5758 5761 5764 5766 5768 5770 5772 5773 5774 5776 5776 5777 5777 5778 5778 5777 5776 5775 5774
5620 5625 5629 5632 5635 5640 5646 5648 5655 5661 5667 5672 5677 5681 5686 5691 5695 5700 5705 5709 5714 5718 5722 5726 5729 5732 5736 5739 5742 5746 5749 5752 5755 5757 5759 5762 5763 5764 5765 5767 5768 5768 5768 5769 5768 5768 5767 5766 5765
5614 5619 5623 5627 5629 5634 5638 5640 5646 5652 5657 5663 5667 5671 5676 5681 5686 5691 5696 5700 5704 5708 5712 5716 5719 5723 5726 5729 5733 5736 5739 5742 5745 5748 5750 5752 5754 5755 5756 5757 5758 5759 5759 5759 5759 5758 5758 5757 5755
5607 5612 5617 5620 5623 5626 5630 5634 5639 5644 5648 5653 5658 5662 5666 5671 5675 5680 5685 5690 5694 5698 5702 5705 5709 5712 5716 5719 5723 5726 5729 5733 5736 5738 5740 5743 5744 5746 5747 5747 5748 5749 5749 5749 5749 5748 5748 5747 5745
5603 5607 5610 5613 5616 5619 5623 5626 5631 5636 5640 5645 5649 5653 5657 5661 5665 5670 5675 5679 5683 5687 5691 5695 5698 5702 5706 5709 5713 5716 5719 5723 5726 5728 5730 5733 5734 5736 5737 5737 5738 5739 5739 5739 5738 5738 5737 5736 5735
5597 5601 5604 5607 5611 5614 5616 5621 5623 5628 5632 5636 5640 5643 5647 5651 5655 5659 5664 5668 5672 5676 5680 5684 5688 5691 5695 5699 5702 5706 5709 5712 5715 5718 5720 5722 5724 5725 5726 5727 5728 5728 5728 5728 5728 5727 5726 5725 5724
5590 5594 5597 5602 5604 5607 5609 5615 5616 5619 5623 5627 5630 5634 5637 5641 5645 5649 5653 5657 5661 5665 5669 5673 5677 5681 5684 5688 5692 5695 5698 5702 5704 5707 5710 5712 5713 5715 5715 5716 5717 5718 5718 5717 5717 5716 5715 5714 5712